Home   Weather   Kolkata   Past weeks
Flag for India

Past Weather in Kolkata, West Bengal, India — Yesterday and Last 2 Weeks

Now
84 °F

Haze.


Feels Like: 96 °F
Forecast: 96 / 82 °F
Wind: No wind

Location: Calcutta / Dum Dum

Current Time: Jul 18, 2019 at 4:31:55 am

Latest Report: Jul 18, 2019 at 3:30 am


Visibility: 2 mi

Pressure: 29.53 "Hg

Humidity: 84%

Dew Point: 79 °F

Location of KolkataLocation

Past Weather in Kolkata — Graph

°F

Kolkata Temperature Yesterday

Maximum temperature yesterday: 97 °F (at 1:00 pm)
Minimum temperature yesterday: 81 °F (at 2:30 am)
Average temperature yesterday: 89 °F

High & Low Weather Summary for the Past Weeks

 TemperatureHumidityPressure
High100 °F (Jul 14, 2:30 pm)100% (Jul 3, 7:30 am)29.65 "Hg (Jul 3, 7:30 am)
Low79 °F (Jul 3, 5:00 am)50% (Jul 14, 3:00 pm)29.27 "Hg (Jul 6, 4:00 pm)
Average87 °F82%29.49 "Hg
* Reported Jul 3 3:30 am — Jul 18 3:30 am, Kolkata. Weather by CustomWeather, © 2019

Note: Actual official high and low records may vary slightly from our data, if they occured in-between our weather recording intervals... More about our weather records

Advertising

Kolkata Weather History for the Previous 24 Hours

Scroll right to see more
 ConditionsComfort  
Time TempWeatherWind HumidityBarometerVisibility
3:30 am
Thu, Jul 18
84 °FHaze.No wind84%29.53 "Hg2 mi
3:00 am86 °FHaze.No wind79%29.53 "Hg2 mi
2:30 am86 °FHaze.No wind79%29.53 "Hg2 mi
2:00 am86 °FHaze.3 mph79%29.56 "Hg2 mi
1:30 am86 °FHaze.6 mph84%29.56 "Hg2 mi
1:00 am86 °FHaze.6 mph84%29.56 "Hg2 mi
12:30 am86 °FHaze.6 mph84%29.56 "Hg2 mi
12:00 am88 °FHaze.6 mph75%29.56 "Hg2 mi
11:30 pm
Wed, Jul 17
88 °FHaze.6 mph75%29.56 "Hg2 mi
11:00 pm88 °FPassing clouds.6 mph75%29.56 "Hg2 mi
10:30 pm88 °FPassing clouds.8 mph75%29.56 "Hg2 mi
10:00 pm88 °FPassing clouds.12 mph75%29.59 "Hg2 mi
9:30 pm88 °FPassing clouds.12 mph75%29.56 "Hg2 mi
9:00 pm90 °FPassing clouds.12 mph71%29.56 "Hg2 mi
8:30 pm90 °FPassing clouds.5 mph71%29.56 "Hg2 mi
8:00 pm91 °FPassing clouds.5 mph67%29.53 "Hg2 mi
7:30 pm91 °FPassing clouds.5 mph67%29.53 "Hg2 mi
7:00 pm91 °FHaze.No wind67%29.50 "Hg2 mi
6:30 pm93 °FHaze.5 mph63%29.47 "Hg2 mi
6:00 pm95 °FHaze.5 mph63%29.47 "Hg2 mi
5:30 pm95 °FHaze.6 mph63%29.47 "Hg2 mi
5:00 pm95 °FHaze.8 mph63%29.47 "Hg2 mi
4:30 pm97 °FHaze.8 mph63%29.47 "Hg2 mi
4:00 pm97 °FScattered clouds.9 mph67%29.47 "Hg2 mi
3:30 pm97 °FScattered clouds.8 mph67%29.47 "Hg2 mi
3:00 pm97 °FScattered clouds.8 mph63%29.50 "Hg2 mi
2:30 pm97 °FScattered clouds.8 mph63%29.50 "Hg2 mi
2:00 pm97 °FScattered clouds.7 mph63%29.53 "Hg2 mi
1:30 pm97 °FScattered clouds.7 mph60%29.53 "Hg2 mi
1:00 pm97 °FScattered clouds.6 mph60%29.53 "Hg2 mi
12:30 pm95 °FScattered clouds.7 mph63%29.53 "Hg2 mi
12:00 pm95 °FScattered clouds.7 mph63%29.56 "Hg2 mi
11:30 am95 °FScattered clouds.7 mph63%29.56 "Hg2 mi
11:00 am95 °FScattered clouds.5 mph63%29.56 "Hg2 mi
10:30 am93 °FScattered clouds.No wind67%29.59 "Hg2 mi
10:00 am91 °FScattered clouds.6 mph71%29.59 "Hg2 mi
9:30 am90 °FScattered clouds.3 mph75%29.59 "Hg2 mi
9:00 am88 °FScattered clouds.6 mph79%29.59 "Hg2 mi
8:30 am88 °FScattered clouds.5 mph79%29.59 "Hg2 mi
8:00 am86 °FScattered clouds.6 mph84%29.59 "Hg2 mi
7:30 am84 °FHaze.5 mph89%29.59 "Hg2 mi
7:00 am84 °FHaze.No wind89%29.59 "Hg2 mi
6:30 am84 °FHaze.No wind84%29.59 "Hg2 mi
6:00 am82 °FHaze.No wind89%29.56 "Hg1 mi
5:30 am81 °FHaze.No wind89%29.56 "Hg2 mi
5:00 am81 °FHaze.No wind89%29.56 "Hg2 mi
4:30 am81 °FPassing clouds.No wind89%29.56 "Hg2 mi
4:00 am81 °FPassing clouds.3 mph94%29.53 "Hg2 mi
Weather by CustomWeather, © 2019

See weather overview